CW2550 Weather Reports


Display with metric or nautical units.
time (UTC)temp
F
wind
direction
speed
MPH
gust
MPH
rain 1hr
in
rain 24hr
in
rain mn
in
humidity
%
barometer
mb
20260831063101 71 0 0.0 0.0 0.00 0.00 0.00 90 1007.6
20260831061557 72 0 0.0 4.0 0.00 0.00 0.00 90 1007.6
20260831060105 72 184 2.0 6.0 0.00 0.00 0.00 90 1007.8
20260831054555 72 170 3.0 7.0 0.00 0.00 0.00 89 1007.7
20260831053107 72 167 3.0 7.0 0.00 0.00 0.00 88 1008.1
20260831051556 72 180 3.0 8.0 0.00 0.00 0.00 88 1008.1
20260831050124 72 188 3.0 8.0 0.00 0.00 0.00 88 1008.5
20260831044552 73 193 2.0 8.0 0.00 0.00 0.00 87 1008.4
20260831043100 73 184 4.0 11.0 0.00 0.00 0.00 87 1008.2
20260831041617 73 173 5.0 12.0 0.00 0.00 0.00 87 1008.4
20260831034556 73 195 4.0 14.0 0.00 0.00 0.00 86 1008.3
20260831033110 73 157 4.0 12.0 0.00 0.00 0.00 86 1008.3
20260831031601 73 182 6.0 17.0 0.00 0.00 0.00 86 1008.3
20260831030056 73 150 4.0 11.0 0.00 0.00 0.00 86 1008.5
20260831024559 73 176 4.0 12.0 0.00 0.00 0.00 86 1008.7
20260831023053 73 188 4.0 11.0 0.00 0.00 0.00 85 1008.9
20260831021549 74 135 4.0 11.0 0.00 0.00 0.00 84 1008.8
20260831014603 74 206 5.0 15.0 0.00 0.00 0.00 83 1008.7
20260831013054 75 182 4.0 10.0 0.00 0.00 0.00 82 1008.5
20260831011552 76 222 7.0 17.0 0.00 0.00 0.00 80 1008.4
20260831010106 76 171 8.0 16.0 0.00 0.00 0.00 79 1008.2
20260831004555 77 153 3.0 11.0 0.00 0.00 0.00 78 1008.1
20260831003109 78 206 5.0 16.0 0.00 0.00 0.00 76 1008.0
20260831001558 78 174 7.0 18.0 0.00 0.00 0.00 74 1007.8
20260831000055 80 150 9.0 19.0 0.00 0.00 0.00 69 1007.6
20260830234559 81 186 6.0 18.0 0.00 0.00 0.00 68 1007.4
20260830233056 82 169 7.0 16.0 0.00 0.00 0.00 68 1007.4
20260830231602 82 169 4.0 13.0 0.00 0.00 0.00 71 1007.5
20260830230053 82 183 5.0 16.0 0.00 0.00 0.00 71 1007.6
20260830224557 83 177 3.0 13.0 0.00 0.00 0.00 70 1007.5
20260830223055 84 150 5.0 20.0 0.00 0.00 0.00 69 1007.2
20260830221553 84 196 7.0 17.0 0.00 0.00 0.00 69 1007.4
20260830220059 84 184 6.0 17.0 0.00 0.00 0.00 69 1007.3
20260830214550 84 181 5.0 16.0 0.00 0.00 0.00 68 1007.4
20260830213059 84 183 7.0 16.0 0.00 0.00 0.00 68 1007.4
20260830211555 86 117 4.0 11.0 0.00 0.00 0.00 66 1007.3
20260830210105 86 175 4.0 10.0 0.00 0.00 0.00 68 1007.1
20260830204610 86 0 3.0 10.0 0.00 0.00 0.00 70 1007.3
20260830203058 86 126 5.0 11.0 0.00 0.00 0.00 68 1007.4
20260830201604 85 91 2.0 10.0 0.00 0.00 0.00 71 1007.6
20260830200108 85 115 1.0 10.0 0.00 0.00 0.00 70 1007.7
20260830194615 84 109 2.0 11.0 0.00 0.00 0.00 72 1007.8
20260830193057 84 130 4.0 12.0 0.00 0.00 0.00 71 1007.7
20260830191559 83 117 5.0 15.0 0.00 0.00 0.00 72 1007.8
20260830190045 83 57 2.0 8.0 0.00 0.00 0.00 75 1007.7
20260830184557 83 69 3.0 6.0 0.00 0.00 0.00 76 1007.8
20260830183046 81 40 4.0 8.0 0.00 0.00 0.00 77 1007.8
20260830181556 81 45 3.0 9.0 0.00 0.00 0.00 77 1008.0
20260830180109 80 74 2.0 11.0 0.00 0.00 0.00 78 1008.1
20260830174556 79 66 2.0 7.0 0.00 0.01 0.00 80 1008.4
20260830173104 78 0 2.0 8.0 0.00 0.01 0.00 80 1008.7
20260830171557 78 211 3.0 9.0 0.00 0.01 0.00 81 1008.8
20260830170057 77 151 2.0 9.0 0.00 0.01 0.00 83 1009.2
20260830164555 76 0 2.0 8.0 0.00 0.01 0.00 83 1009.1
20260830163100 75 136 2.0 7.0 0.00 0.01 0.00 84 1008.8
20260830161623 75 134 3.0 7.0 0.00 0.01 0.00 83 1009.1
20260830160052 75 119 0.0 7.0 0.00 0.01 0.00 86 1008.8
20260830154603 74 124 2.0 7.0 0.00 0.01 0.00 86 1008.5
20260830153049 73 0 0.0 6.0 0.00 0.01 0.00 88 1008.8
20260830151557 72 80 0.0 5.0 0.00 0.01 0.00 90 1008.0
20260830150109 71 71 1.0 5.0 0.00 0.01 0.00 92 1008.0
20260830144551 70 65 1.0 4.0 0.00 0.01 0.00 93 1008.2
20260830143057 69 62 2.0 6.0 0.00 0.01 0.00 94 1008.5
20260830141553 68 63 1.0 4.0 0.00 0.01 0.00 94 1008.2
20260830140049 68 0 0.0 0.0 0.00 0.01 0.00 94 1008.3
20260830134558 68 0 0.0 1.0 0.00 0.01 0.00 94 1008.6
20260830133058 67 0 0.0 0.0 0.00 0.01 0.00 94 1008.7
20260830131607 67 0 0.0 0.0 0.00 0.01 0.00 94 1008.7
20260830130053 66 0 0.0 0.0 0.00 0.01 0.00 94 1008.3
20260830124543 66 0 0.0 0.0 0.00 0.02 0.00 94 1008.2
20260830123058 66 0 0.0 0.0 0.00 0.02 0.00 94 1008.3
20260830121552 65 0 0.0 3.0 0.00 0.02 0.00 94 1008.3
20260830120058 65 0 0.0 0.0 0.00 0.02 0.00 94 1008.2
20260830114552 65 0 0.0 0.0 0.00 0.12 0.00 93 1008.2
20260830113047 65 0 0.0 0.0 0.00 0.12 0.00 93 1008.0
20260830111556 65 0 0.0 0.0 0.00 0.12 0.00 93 1008.1
20260830110129 65 0 0.0 0.0 0.00 0.12 0.00 93 1008.0
20260830104603 65 0 0.0 0.0 0.00 0.25 0.00 93 1008.0
20260830103047 65 0 0.0 0.0 0.00 0.25 0.00 93 1008.4
20260830101554 65 0 0.0 0.0 0.00 0.25 0.00 92 1008.4
20260830100057 66 0 0.0 0.0 0.00 0.25 0.00 93 1008.6
20260830094544 66 0 0.0 0.0 0.00 0.34 0.00 92 1008.3
20260830093054 66 0 0.0 0.0 0.00 0.34 0.00 92 1008.1
20260830091552 66 0 0.0 0.0 0.00 0.34 0.00 92 1007.9
20260830090057 66 0 0.0 0.0 0.00 0.34 0.00 92 1008.3
20260830084553 66 0 0.0 0.0 0.00 0.34 0.00 91 1008.2
20260830083058 66 0 0.0 0.0 0.00 0.34 0.00 91 1008.4
20260830081547 67 0 0.0 0.0 0.00 0.34 0.00 91 1008.2
20260830080059 67 0 0.0 0.0 0.00 0.34 0.00 91 1008.2
20260830074601 67 0 0.0 0.0 0.00 0.34 0.00 91 1008.4
20260830073047 67 0 0.0 0.0 0.00 0.34 0.00 90 1008.6
20260830071602 68 0 0.0 0.0 0.00 0.34 0.00 90 1008.6
20260830070058 68 0 0.0 0.0 0.00 0.34 0.00 91 1008.6
20260830064600 68 144 0.0 1.0 0.00 0.34 0.00 90 1008.6